FW5398 Weather Reports


Display with metric or nautical units.
time (UTC)temp
F
wind
direction
speed
MPH
gust
MPH
rain 1hr
in
rain 24hr
in
rain mn
in
humidity
%
barometer
mb
20260505041609 44 228 14.0 22.0 0.00 0.23 0.00 82 1005.7
20260505040053 44 176 13.0 23.0 0.00 0.23 0.00 83 1005.5
20260505034550 44 205 12.0 21.0 0.00 0.23 0.00 82 1005.2
20260505033048 45 183 17.0 27.0 0.00 0.23 0.00 82 1005.1
20260505031545 44 197 15.0 24.0 0.00 0.23 0.00 82 1004.9
20260505030055 44 206 12.0 25.0 0.00 0.23 0.00 82 1004.7
20260505024539 44 231 14.0 22.0 0.00 0.23 0.23 82 1004.4
20260505023039 44 203 17.0 25.0 0.00 0.23 0.23 81 1004.1
20260505021549 44 216 15.0 26.0 0.00 0.23 0.23 82 1004.2
20260505020049 45 220 14.0 22.0 0.00 0.23 0.23 82 1004.0
20260505014536 45 214 14.0 27.0 0.00 0.23 0.23 83 1003.8
20260505013034 46 207 16.0 29.0 0.00 0.23 0.23 84 1003.4
20260505011535 46 226 16.0 28.0 0.00 0.23 0.23 85 1003.4
20260505010049 46 213 15.0 26.0 0.00 0.23 0.23 85 1003.3
20260505004532 46 184 17.0 29.0 0.00 0.23 0.23 85 1003.3
20260505003031 45 198 13.0 29.0 0.00 0.23 0.23 86 1003.2
20260505001530 46 177 16.0 28.0 0.00 0.23 0.23 87 1002.9
20260505000031 46 203 17.0 22.0 0.00 0.23 0.23 86 1002.8
20260504234524 46 222 16.0 30.0 0.00 0.25 0.23 82 1002.6
20260504233025 47 197 15.0 26.0 0.00 0.25 0.23 81 1002.4
20260504231521 48 185 17.0 30.0 0.00 0.25 0.23 80 1001.9
20260504230022 46 221 12.0 22.0 0.00 0.25 0.23 81 1001.9
20260504224631 47 239 13.0 24.0 0.00 0.32 0.23 80 1001.8
20260504223021 48 229 15.0 22.0 0.00 0.32 0.23 80 1001.6
20260504221517 48 195 13.0 23.0 0.00 0.32 0.23 79 1001.5
20260504220016 48 251 14.0 24.0 0.00 0.32 0.23 79 1001.6
20260504214523 48 168 15.0 23.0 0.00 0.37 0.23 78 1001.4
20260504213010 45 220 10.0 18.0 0.00 0.37 0.23 79 1001.3
20260504211509 45 230 11.0 20.0 0.00 0.37 0.23 79 1001.5
20260504210012 43 214 12.0 18.0 0.00 0.37 0.23 80 1001.2
20260504204510 44 238 9.0 20.0 0.00 0.41 0.23 79 1000.9
20260504203005 43 228 12.0 20.0 0.00 0.41 0.23 79 1000.5
20260504201505 44 201 11.0 22.0 0.00 0.41 0.23 80 1000.4
20260504200004 46 205 13.0 21.0 0.00 0.41 0.23 79 1000.3
20260504194559 46 230 16.0 27.0 0.00 0.46 0.23 78 1000.0
20260504193055 45 228 15.0 25.0 0.00 0.46 0.23 80 999.7
20260504191607 45 230 15.0 22.0 0.00 0.46 0.23 80 999.4
20260504190049 43 233 14.0 20.0 0.00 0.46 0.23 82 999.4
20260504184546 41 230 12.0 23.0 0.00 0.46 0.23 83 999.3
20260504183046 42 234 12.0 17.0 0.00 0.46 0.23 83 999.3
20260504181544 41 207 10.0 18.0 0.00 0.46 0.23 84 999.1
20260504180041 40 226 11.0 18.0 0.00 0.46 0.23 84 999.1
20260504174539 40 231 12.0 18.0 0.00 0.46 0.23 84 998.8
20260504173037 40 234 14.0 20.0 0.00 0.46 0.23 84 998.7
20260504171534 40 230 13.0 21.0 0.00 0.46 0.23 84 998.2
20260504120107 34 264 20.0 28.0 0.02 0.42 0.19 85 990.3
20260504081557 36 262 13.0 20.0 0.05 0.38 0.15 85 977.7
20260504050025 40 344 0.0 2.0 0.00 0.23 0.00 83 975.2
20260504044522 40 344 1.0 4.0 0.00 0.23 0.00 82 975.5
20260504043021 40 347 1.0 4.0 0.00 0.23 0.00 82 975.8